LKNA Weather Reports


time (UTC)temp
C
wind
direction
speed
KPH
gust
KPH
rain 1hr
cm
rain 24hr
cm
rain mn
cm
humidity
%
barometer
mb
20260506143109 21 120 24.1 0.0 0.00 0.00 0.00 46 1006.0
20260506142048 22 140 29.0 0.0 0.00 0.00 0.00 46
20260506140105 22 140 25.7 0.0 0.00 0.00 0.00 43 1006.0
20260506133109 21 130 29.0 0.0 0.00 0.00 0.00 46 1006.0
20260506132048 21 130 25.7 0.0 0.00 0.00 0.00 46
20260506130113 21 120 24.1 0.0 0.00 0.00 0.00 46 1007.0
20260506123110 21 150 16.1 0.0 0.00 0.00 0.00 43 1007.0
20260506122048 21 160 19.3 0.0 0.00 0.00 0.00 46
20260506120246 21 150 16.1 0.0 0.00 0.00 0.00 43 1007.0
20260506112034 21 150 19.3 0.0 0.00 0.00 0.00 40
20260506110113 21 160 14.5 0.0 0.00 0.00 0.00 40 1007.0
20260506103110 21 160 16.1 0.0 0.00 0.00 0.00 40 1008.0
20260506102234 20 180 11.3 0.0 0.00 0.00 0.00 49
20260506100112 21 180 14.5 0.0 0.00 0.00 0.00 46 1008.0
20260506093110 20 170 12.9 0.0 0.00 0.00 0.00 49 1008.0
20260506092028 18 160 14.5 0.0 0.00 0.00 0.00 55
20260506090241 17 160 16.1 0.0 0.00 0.00 0.00 59 1008.0
20260506083110 17 170 16.1 0.0 0.00 0.00 0.00 59 1008.0
20260506082033 17 230 11.3 0.0 0.00 0.00 0.00 63
20260506080104 17 220 11.3 0.0 0.00 0.00 0.00 59 1008.0
20260506073110 17 210 11.3 0.0 0.00 0.00 0.00 63 1008.0
20260506072035 17 200 11.3 0.0 0.00 0.00 0.00 63
20260506070247 16 200 9.7 0.0 0.00 0.00 0.00 67 1008.0
20260506062108 13 220 8.0 0.0 0.00 0.00 0.00 82
20260506060112 13 230 9.7 0.0 0.00 0.00 0.00 82 1008.0
20260506050105 12 210 9.7 0.0 0.00 0.00 0.00 93 1008.0
20260506043110 12 210 9.7 0.0 0.00 0.00 0.00 93 1007.0
20260506042247 11 180 8.0 0.0 0.00 0.00 0.00 93
20260506040242 11 180 8.0 0.0 0.00 0.00 0.00 93 1007.0
20260506033109 12 250 8.0 0.0 0.00 0.00 0.00 87 1007.0
20260506032036 12 260 8.0 0.0 0.00 0.00 0.00 87
20260506030241 12 260 8.0 0.0 0.00 0.00 0.00 87 1007.0
20260506023230 12 280 11.3 0.0 0.00 0.00 0.00 87 1007.0
20260506022034 12 270 14.5 0.0 0.00 0.00 0.00 87
20260506020105 12 270 12.9 0.0 0.00 0.00 0.00 87 1007.0
20260506013109 13 300 20.9 0.0 0.00 0.00 0.00 82 1006.0
20260506012134 13 320 19.3 0.0 0.00 0.00 0.00 76
20260506010111 13 320 19.3 0.0 0.00 0.00 0.00 76 1006.0
20260506005605 13 300 16.1 0.0 0.00 0.00 0.00 76 1006.0
20260506002033 13 250 11.3 0.0 0.00 0.00 0.00 67
20260506000242 13 230 9.7 0.0 0.00 0.00 0.00 67 1006.0
20260505233110 13 110 9.7 0.0 0.00 0.00 0.00 67 1006.0
20260505232032 13 100 11.3 0.0 0.00 0.00 0.00 67
20260505230105 13 110 8.0 0.0 0.00 0.00 0.00 67 1005.0
20260505223110 13 110 12.9 0.0 0.00 0.00 0.00 67 1005.0
20260505222034 13 120 14.5 0.0 0.00 0.00 0.00 67
20260505220242 15 110 16.1 0.0 0.00 0.00 0.00 62 1005.0
20260505213109 15 110 16.1 0.0 0.00 0.00 0.00 58 1005.0
20260505212123 15 110 19.3 0.0 0.00 0.00 0.00 58
20260505210253 15 110 16.1 0.0 0.00 0.00 0.00 58 1005.0
20260505203116 16 100 16.1 0.0 0.00 0.00 0.00 55 1005.0
20260505202055 16 110 19.3 0.0 0.00 0.00 0.00 55
20260505200105 16 110 19.3 0.0 0.00 0.00 0.00 55 1005.0
20260505193110 17 110 19.3 0.0 0.00 0.00 0.00 51 1005.0
20260505192106 17 110 19.3 0.0 0.00 0.00 0.00 51
20260505190104 17 100 19.3 0.0 0.00 0.00 0.00 51 1005.0
20260505183110 18 110 20.9 0.0 0.00 0.00 0.00 45 1005.0
20260505182049 18 120 25.7 0.0 0.00 0.00 0.00 45
20260505180240 20 130 24.1 0.0 0.00 0.00 0.00 42 1005.0
20260505173109 21 130 25.7 0.0 0.00 0.00 0.00 40 1005.0
20260505172104 22 140 25.7 0.0 0.00 0.00 0.00 37
20260505170240 22 140 22.5 0.0 0.00 0.00 0.00 35 1005.0
20260505163104 23 130 22.5 0.0 0.00 0.00 0.00 31 1005.0
20260505162221 23 120 22.5 0.0 0.00 0.00 0.00 27
20260505160112 23 120 22.5 0.0 0.00 0.00 0.00 25 1005.0
20260505153105 25 120 19.3 0.0 0.00 0.00 0.00 23 1005.0
20260505152048 23 120 19.3 0.0 0.00 0.00 0.00 27
20260505150105 25 120 20.9 0.0 0.00 0.00 0.00 25 1006.0